Regional Weather Roundup
Issued by NWS

Home | Current Version | Previous Version | Graphics & Text | Print | Product List | Glossary On
Versions: 1 2 3 4 5 6 7 8 9 10 11 12 13 14 15 16 17 18 19 20 21 22 23 24 25 26 27 28 29 30 31 32 33 34 35 36 37 38 39 40 41 42 43 44 45 46 47 48 49 50
189
ASUS45 KPSR 202110
RWRAZ

ARIZONA HOURLY REGIONAL WEATHER ROUNDUP
NATIONAL WEATHER SERVICE PHOENIX AZ
200 PM MST MON FEB 20 2017

NOTE: FAIR INDICATES FEW OR NO CLOUDS BELOW 12,000 FEET WITH NO
SIGNIFICANT WEATHER AND/OR OBSTRUCTIONS TO VISIBILITY.

AZZ001>003-036-202200-
NORTHWEST ARIZONA

CITY           SKY/WX    TMP DP  RH WIND       PRES   REMARKS
BULLHEAD CITY  PTSUNNY   68  48  49 S16       30.20F
KINGMAN        CLOUDY    57  38  48 S13       30.24F
$$

AZZ004>008-015-016-018-202200-
NORTH CENTRAL ARIZONA

CITY           SKY/WX    TMP DP  RH WIND       PRES   REMARKS
GRAND CANYON   CLOUDY    44  37  76 SW8       30.28F
WILLIAMS       PTSUNNY   46  34  61 VRB6      30.29F
PRESCOTT       PTSUNNY   53  39  59 NE3       30.28F
FLAGSTAFF      CLOUDY    43  35  73 SW7       30.30S
PAYSON         CLOUDY    50  39  66 W8        30.31F
PAGE           CLOUDY    54  36  50 N7        30.21F
$$

AZZ009>014-017-202200-
NORTHEAST ARIZONA

CITY           SKY/WX    TMP DP  RH WIND       PRES   REMARKS
WINSLOW        SUNNY     58  33  39 SE5       30.25F
SAINT JOHNS    SUNNY     55  29  36 NE3       30.25F
WINDOW ROCK    MOSUNNY   47  32  56 SW8       30.27F
SHOW LOW       SUNNY     48  30  49 W6        30.28F
$$

AZZ023-202200-
GREATER PHOENIX AREA

CITY           SKY/WX    TMP DP  RH WIND       PRES   REMARKS
PHOENIX        PTSUNNY   66  45  46 SE3       30.23F
BUCKEYE        MOSUNNY   64  48  55 SE3       30.25F
GLENDALE       PTSUNNY   66  46  48 CALM      30.26F
LUKE AFB       SUNNY     65  49  54 VRB3      30.23F
DEER VALLEY    SUNNY     64  47  53 CALM      30.24F
SCOTTSDALE     PTSUNNY   64  45  49 VRB5      30.26S
MESA-FALCON    MOSUNNY  N/A N/A N/A VRB6      30.22F
MESA-GATEWAY   MOSUNNY   64  45  48 CALM      30.25F
CHANDLER       MOSUNNY   66  46  48 N5        30.24F
$$

AZZ027-028-202200-
SOUTHWEST MARICOPA COUNTY AND PINAL COUNTY

CITY           SKY/WX    TMP DP  RH WIND       PRES   REMARKS
CASA GRANDE    NOT AVBL
GILA BEND      FAIR      66  50  56 CALM      30.23F
$$

AZZ503-504-507>509-202200-
SOUTHEAST ARIZONA

CITY           SKY/WX    TMP DP  RH WIND       PRES   REMARKS
TUCSON         SUNNY     65  41  41 CALM      30.26F
DAVIS-MONTHAN  SUNNY     63  40  43 CALM      30.25F
RYAN FIELD     SUNNY     64  41  42 S3        30.26F
NOGALES        SUNNY     63  38  39 VRB7      30.24F
SIERRA VISTA   SUNNY     61  34  37 N8        30.27F
DOUGLAS        SUNNY     60  37  42 VRB5      30.26F
SAFFORD        SUNNY     64  37  36 W15G23    30.21F
$$

AZZ020-021-025-026-031-202200-
SOUTHWEST ARIZONA

CITY           SKY/WX    TMP DP  RH WIND       PRES   REMARKS
YUMA           SUNNY     69  51  52 VRB6      30.21F
$$

CAZ031-033-041-043-047-048-061-202200-
SOUTHERN CALIFORNIA

CITY           SKY/WX    TMP DP  RH WIND       PRES   REMARKS
DOWNTOWN L.A.  CLOUDY    61  53  75 VRB3      30.25F
L.A. AIRPORT   CLOUDY    59  54  83 SE9       30.25F
SAN DIEGO      MOSUNNY   67  48  50 SW8       30.25F
BURBANK        CLOUDY    57  50  77 SE13      30.24F
ONTARIO        PTSUNNY   61  51  70 VRB3      30.24F
RIVERSIDE      CLOUDY    64  53  67 VRB3      30.23F
PALM SPRINGS   SUNNY     67  52  58 VRB7      30.22F
EL CENTRO NAS  SUNNY     70  48  45 VRB3      30.21F
IMPERIAL       SUNNY     70  55  59 SE8       30.19F
BLYTHE         MOSUNNY   69  51  52 S13       30.21F
NEEDLES        CLOUDY    67  50  54 SE9       30.21F
$$

NVZ020-UTZ003-202200-
SOUTHERN NEVADA-UTAH

CITY           SKY/WX    TMP DP  RH WIND       PRES   REMARKS
LAS VEGAS      PTSUNNY   64  44  48 S14G22    30.10F
SALT LAKE CITY CLOUDY    54  34  46 S20G37    29.96F
$$

NMZ009-TXZ055-202200-
NEW MEXICO-WEST TEXAS

CITY           SKY/WX    TMP DP  RH WIND       PRES   REMARKS
ALBUQUERQUE    MOSUNNY   57  25  29 NW17G25   30.19F
EL PASO        MOSUNNY   65  26  23 N7        30.16F
$$


........................KEY........................
SKY/WX - SKY CONDITION/WEATHER
TMP    - TEMPERATURE IN FAHRENHEIT
DP     - DEW POINT IN FAHRENHEIT
RH     - RELATIVE HUMIDITY IN PERCENT
WIND   - DIRECTION AND SPEED IN MILES PER HOUR (MPH)
VRB    - VARIABLE WIND DIRECTION
PRES   - MEAN SEA LEVEL PRESSURE IN INCHES OF MERCURY
         F - FALLING PRESSURE   R - RISING PRESSURE
         S - STEADY PRESSURE
VSB    - VISIBILITY IN MILES
HX     - HEAT INDEX IN FAHRENHEIT
WCI    - WIND CHILL INDEX IN FAHRENHEIT
TC     - TEMPERATURE IN CELSIUS WHICH IS ALSO KNOWN AS
         TEMPERATURE IN CENTIGRADE
AFB    - AIR FORCE BASE
         LUKE AFB IS LUKE AIR FORCE BASE
         DAVIS-MONTHAN IS DAVIS-MONTHAN AIR FORCE BASE
NAS    - NAVAL AIR STATION
         EL CENTRO NAS IS EL CENTRO NAVAL AIR STATION
N/A    - NOT AVAILABLE





USA.gov is the U.S. government's official web portal to all federal, state and local government web resources and services.